Station NTKM3 - 8449130 - Nantucket Island, MA Image indicating link to RSS feed of recent meteorological observations for station NTKM3


Conditions at NTKM3 as of
(3:00 pm EDT)
1900 GMT on 05/30/2024:
     

Click on the graph icon in the table below to see a time series plot of the last five days of that observation.

5-day plot - Wind Direction Wind Direction (WDIR): W ( 280 deg true )
5-day plot - Wind Speed Wind Speed (WSPD): 7.0 kts
5-day plot - Wind Gust Wind Gust (GST): 9.9 kts
5-day plot - Atmospheric Pressure Atmospheric Pressure (PRES):29.84 in
5-day plot - Pressure Tendency Pressure Tendency (PTDY):-0.02 in ( Falling )
5-day plot - Air Temperature Air Temperature (ATMP): 61.3 °F
5-day plot - Water Temperature Water Temperature (WTMP): 63.1 °F
5-day plot - Wind Speed at 10 Meters Wind Speed at 10 meters (WSPD10M): 7.8 kts
5-day plot - Wind Speed at 20 Meters Wind Speed at 20 meters (WSPD20M): 7.8 kts
5-day plot -  Wind Speed, Wind Gust and Atmospheric Pressure Combined plot of Wind Speed, Gust, and Air Pressure
NOS Water Level Observation Network Water Level
Previous observations
TIME
(EDT)
5-day plot - Wind Direction
WDIR
 
5-day plot - Wind Speed
WSPD
kts
5-day plot - Wind Gust
GST
kts
5-day plot - Wave Height
WVHT
ft
5-day plot - Dominant Wave Period
DPD
sec
5-day plot - Average Wave Period
APD
sec
5-day plot - Mean Wave Direction
MWD
 
5-day plot - Atmospheric Pressure
PRES
in
5-day plot - Pressure Tendency
PTDY
in
5-day plot - Air Temperature
ATMP
°F
5-day plot - Water Temperature
WTMP
°F
5-day plot - Dew Point
DEWP
°F
5-day plot - Salinity
SAL
psu
5-day plot - Visibility
VIS
nmi
5-day plot - Tide (above MLLW)
TIDE
ft
2024-05-30 02:54 pm W 4.1 9.9----29.83- 61.9 63.1----
2024-05-30 02:48 pmWNW 5.1 9.9----29.83- 61.7 63.1----
2024-05-30 02:42 pmWNW 6.0 11.1----29.84- 61.9 63.1----
2024-05-30 02:36 pm NW 7.0 8.9----29.84- 61.9 63.1----
2024-05-30 02:30 pmWNW 7.0 9.9----29.84- 61.3 63.1----
2024-05-30 02:24 pmWNW 7.0 11.1----29.84- 61.5 63.1----
2024-05-30 02:18 pmWNW 6.0 11.1----29.84- 62.6 63.1----
2024-05-30 02:12 pmWNW 7.0 12.0----29.84- 61.7 63.3----
2024-05-30 02:06 pmWSW 5.1 8.9----29.83- 63.0 63.3----
2024-05-30 02:00 pmWSW 5.1 9.9----29.83-0.03 62.8 63.3----
2024-05-30 01:54 pmWSW 6.0 8.0----29.83- 62.2 63.3----
2024-05-30 01:48 pm W 4.1 12.0----29.84-- 63.3----
2024-05-30 01:42 pmWSW 8.0 12.0----29.84-- 63.3----
2024-05-30 01:36 pm W 6.0 13.0----29.84-- 63.3----
2024-05-30 01:30 pmWSW 8.0 14.0----29.84- 63.1 63.3----
2024-05-30 01:24 pmWSW 8.9 15.0----29.84- 63.3 63.3----
2024-05-30 01:18 pm SW 8.9 9.9----29.85- 63.0 63.3----
2024-05-30 01:12 pm SW 7.0 12.0----29.85- 62.4 63.3----
2024-05-30 01:06 pm SW 8.0 13.0----29.85- 62.4 63.3----
2024-05-30 01:00 pmWSW 7.0 12.0----29.85-0.02 62.8 63.3----
2024-05-30 12:54 pmWSW 6.0 15.0----29.85- 63.3 63.3----
2024-05-30 12:48 pmWSW 8.9 13.0----29.85- 62.8 63.3----
2024-05-30 12:42 pm SW 6.0 14.0----29.85- 62.6 63.3----
2024-05-30 12:36 pm W 7.0 13.0----29.85- 62.6 63.3----
2024-05-30 12:30 pm SW 8.9 13.0----29.86- 62.4 63.3----
2024-05-30 12:24 pm SW 7.0 14.0----29.86- 63.0 63.3----
2024-05-30 12:18 pmSSW 9.9 17.1----29.86- 62.6 63.3----
2024-05-30 12:12 pm SW 7.0 12.0----29.86- 63.5 63.3----
2024-05-30 12:06 pm SW 5.1 13.0----29.86- 63.7 63.3----
2024-05-30 12:00 pm SW 7.0 13.0----29.86-0.01 63.9 63.1----
2024-05-30 11:54 am SW 8.9 14.0----29.86- 64.0 63.1----
2024-05-30 11:48 amWSW 7.0 11.1----29.86-- 63.1----
2024-05-30 11:42 amSSW 8.9 14.0----29.86-- 63.1----
2024-05-30 11:36 amSSW 8.9 12.0----29.86-- 63.1----
2024-05-30 11:30 amSSW 7.0 14.0----29.86- 64.9 63.1----
2024-05-30 11:24 am S 8.9 12.0----29.86- 64.6 63.1----
2024-05-30 11:18 amSSW 7.0 12.0----29.86- 64.4 63.1----
2024-05-30 11:12 am S 8.9 12.0----29.86- 64.6 63.1----
2024-05-30 11:06 am S 6.0 9.9----29.86- 64.9 63.1----
2024-05-30 11:00 am SW 7.0 11.1----29.86-0.02 64.9 63.1----
2024-05-30 10:54 amWSW 5.1 11.1----29.86- 65.3 63.0----
2024-05-30 10:48 am SW 5.1 8.9----29.87- 65.8 63.0----
2024-05-30 10:42 amSSW 6.0 11.1----29.87- 65.3 63.0----
2024-05-30 10:36 am SW 5.1 11.1----29.87- 65.1 63.0----
2024-05-30 10:30 am SW 5.1 8.9----29.87- 64.8 63.0----
2024-05-30 10:24 am SW 5.1 7.0----29.87- 64.6 63.0----
2024-05-30 10:18 amWSW 5.1 6.0----29.87- 65.3 63.0----
2024-05-30 10:12 amWSW 4.1 7.0----29.87- 64.6 63.0----
2024-05-30 10:06 am W 5.1 8.0----29.87- 64.6 63.0----
2024-05-30 10:00 am W 2.9 7.0----29.87+0.01 64.6 63.0----
2024-05-30 09:54 am W 1.9 5.1----29.87- 64.4 63.0----
2024-05-30 09:48 am- 0.0 1.9----29.86- 64.4 63.0----
2024-05-30 09:42 am- 0.0 1.9----29.86- 63.3 63.0----
2024-05-30 09:36 am- 0.0 2.9----29.87- 62.4 63.0----
2024-05-30 09:30 am- 0.0 1.9----29.87- 62.2 63.0----
2024-05-30 09:24 amSSE 1.0 1.9----29.87- 61.9 62.8----
2024-05-30 09:18 amESE 1.9 1.9----29.87- 61.5 62.8----
2024-05-30 09:12 am SE 1.9 2.9----29.87- 61.5 62.8----
2024-05-30 09:06 am- 0.0 1.0----29.87- 61.7 62.8----
2024-05-30 09:00 am- 0.0 4.1----29.87- 61.3 62.8----
2024-05-30 08:54 am W 1.9 5.1----29.88- 61.3 62.8----
2024-05-30 08:48 am SW 2.9 7.0----29.88- 61.2 62.8----
2024-05-30 08:42 am SW 5.1 7.0----29.89- 61.3 62.8----
2024-05-30 08:36 amWSW 5.1 6.0----29.89- 61.2 62.8----
2024-05-30 08:30 am SW 1.9 4.1----29.88- 61.0 62.8----
2024-05-30 08:24 amSSW 2.9 5.1----29.88- 60.6 62.8----
2024-05-30 08:18 am S 2.9 4.1----29.88- 60.3 62.8----
2024-05-30 08:12 amSSW 1.9 4.1----29.88- 60.1 62.8----
2024-05-30 08:06 am S 1.9 1.9----29.88- 60.1 62.8----
2024-05-30 08:00 am S 1.9 5.1----29.88- 59.7 62.8----
2024-05-30 07:54 am SW 2.9 4.1----29.88- 59.7 62.8----
2024-05-30 07:48 am SW 1.9 5.1----29.88-- 62.8----
2024-05-30 07:42 am SW 2.9 7.0----29.88-- 62.8----
2024-05-30 07:36 am SW 4.1 7.0----29.88-- 62.8----
2024-05-30 07:30 am SW 5.1 8.0----29.88- 59.5 62.8----
2024-05-30 07:24 am SW 5.1 7.0----29.88- 59.7 62.8----
2024-05-30 07:18 am SW 2.9 5.1----29.87- 59.9 62.8----
2024-05-30 07:12 am SW 1.9 2.9----29.86- 59.7 62.8----
2024-05-30 07:06 am- 0.0 4.1----29.85- 59.7 62.8----
2024-05-30 07:00 amSSE 2.9 4.1----29.85- 59.7 62.8----
2024-05-30 06:54 am S 2.9 5.1----29.85- 59.5 62.8----
2024-05-30 06:48 amSSW 2.9 7.0----29.85- 59.4 63.0----
2024-05-30 06:42 amSSW 2.9 6.0----29.86- 59.5 63.0----
2024-05-30 06:36 am SW 4.1 7.0----29.86- 59.5 63.0----
2024-05-30 06:30 amSSW 5.1 6.0----29.86- 59.5 63.0----
2024-05-30 06:24 amSSW 2.9 6.0----29.86- 59.5 63.0----
2024-05-30 06:18 am SW 5.1 7.0----29.86- 59.5 63.0----
2024-05-30 06:12 am SW 2.9 7.0----29.86- 59.2 63.0----
2024-05-30 06:06 am SW 5.1 8.0----29.87- 59.0 63.0----
2024-05-30 06:00 am SW 5.1 6.0----29.86-0.03 58.6 63.0----
2024-05-30 05:54 am SW 4.1 6.0----29.86- 58.5 63.0----
2024-05-30 05:48 am SW 4.1 6.0----29.86- 58.3 63.0----
2024-05-30 05:42 am SW 4.1 5.1----29.86- 58.3 63.0----
2024-05-30 05:36 am SW 1.9 5.1----29.86- 58.5 63.0----
2024-05-30 05:30 amSSW 4.1 6.0----29.86- 58.3 63.0----
2024-05-30 05:24 amSSW 4.1 6.0----29.87- 58.3 63.0----
2024-05-30 05:18 amSSW 2.9 5.1----29.87- 58.3 63.0----
2024-05-30 05:12 am SW 4.1 5.1----29.87- 58.3 63.0----
2024-05-30 05:06 am SW 4.1 6.0----29.86- 58.5 63.0----
2024-05-30 05:00 am SW 4.1 6.0----29.87-0.04 58.5 63.0----
2024-05-30 04:54 amSSW 4.1 5.1----29.87- 58.5 63.0----
2024-05-30 04:48 am SW 1.9 5.1----29.86-- 63.0----
2024-05-30 04:42 am SW 1.9 5.1----29.86-- 63.0----
2024-05-30 04:36 am SW 2.9 6.0----29.86-- 63.0----
2024-05-30 04:30 am SW 2.9 7.0----29.87- 58.1 63.0----
2024-05-30 04:24 amSSW 5.1 8.0----29.87- 57.9 63.0----
2024-05-30 04:18 amSSW 4.1 7.0----29.87- 57.9 63.0----
2024-05-30 04:12 amSSW 5.1 7.0----29.88- 57.9 63.0----
2024-05-30 04:06 amSSW 4.1 5.1----29.87- 57.9 63.1----
2024-05-30 04:00 amSSW 4.1 7.0----29.87-0.04 57.9 63.1----
2024-05-30 03:54 amSSW 4.1 7.0----29.87- 57.7 63.1----
2024-05-30 03:48 amSSW 5.1 8.0----29.88-- 63.1----
2024-05-30 03:42 amSSW 4.1 7.0----29.88-- 63.1----
2024-05-30 03:36 amSSW 4.1 7.0----29.88-- 63.1----
2024-05-30 03:30 am SW 6.0 8.9----29.89- 57.6 63.1----
2024-05-30 03:24 am SW 5.1 8.0----29.89- 57.6 63.1----
2024-05-30 03:18 am SW 5.1 7.0----29.89- 57.7 63.1----
2024-05-30 03:12 amSSW 5.1 6.0----29.89- 57.7 63.1----
2024-05-30 03:06 amSSW 4.1 6.0----29.88- 57.9 63.1----
2024-05-30 03:00 amSSW 5.1 7.0----29.89-0.03 57.7 63.1----
2024-05-30 02:54 am S 5.1 7.0----29.88- 57.7 63.1----
2024-05-30 02:48 amSSW 5.1 7.0----29.89- 57.7 63.1----
2024-05-30 02:42 amSSW 4.1 6.0----29.89- 57.7 63.1----
2024-05-30 02:36 amSSW 4.1 6.0----29.89- 57.7 63.1----
2024-05-30 02:30 amSSW 4.1 6.0----29.90- 57.7 63.1----
2024-05-30 02:24 amSSW 1.9 4.1----29.90- 57.7 63.1----
2024-05-30 02:18 amSSW 4.1 5.1----29.90- 57.9 63.1----
2024-05-30 02:12 amSSW 4.1 6.0----29.90- 57.9 63.3----
2024-05-30 02:06 am SW 4.1 6.0----29.90- 57.9 63.3----
2024-05-30 02:00 amSSW 4.1 5.1----29.90-0.02 57.9 63.3----
2024-05-30 01:54 amSSW 2.9 5.1----29.90- 57.9 63.3----
2024-05-30 01:48 amSSW 4.1 6.0----29.91-- 63.3----
2024-05-30 01:42 am SW 2.9 8.0----29.91-- 63.5----
2024-05-30 01:36 amSSW 5.1 7.0----29.91-- 63.5----
2024-05-30 01:30 amSSW 4.1 7.0----29.91- 58.1 63.5----
2024-05-30 01:24 amSSW 4.1 6.0----29.91- 58.1 63.5----
2024-05-30 01:18 amSSW 4.1 7.0----29.91- 58.1 63.5----
2024-05-30 01:12 am S 5.1 7.0----29.91- 58.1 63.7----
2024-05-30 01:06 am S 4.1 7.0----29.91- 57.9 63.7----
2024-05-30 01:00 am S 5.1 7.0----29.91-0.01 57.9 63.7----
2024-05-30 12:54 am S 5.1 7.0----29.91- 57.7 63.7----
2024-05-30 12:48 am S 5.1 8.0----29.91-- 63.7----
2024-05-30 12:42 am S 5.1 8.0----29.92-- 63.7----
2024-05-30 12:36 am S 4.1 6.0----29.92-- 63.9----
2024-05-30 12:30 am S 4.1 7.0----29.91- 57.7 63.9----
2024-05-30 12:24 amSSW 4.1 7.0----29.91- 57.6 63.9----
2024-05-30 12:18 am S 4.1 5.1----29.91- 57.6 63.9----
2024-05-30 12:12 amSSW 2.9 6.0----29.91- 57.6 63.9----
2024-05-30 12:06 amSSW 4.1 6.0----29.91- 57.4 63.9----
2024-05-30 12:00 amSSW 4.1 5.1----29.92+0.00 57.4 63.9----
2024-05-29 11:54 pm S 2.9 5.1----29.92- 57.4 63.9----
2024-05-29 11:48 pm S 2.9 4.1----29.92- 57.4 63.9----
2024-05-29 11:42 pm S 1.9 6.0----29.92- 57.4 63.9----
2024-05-29 11:36 pm S 4.1 6.0----29.92- 57.6 63.9----
2024-05-29 11:30 pm S 4.1 7.0----29.92- 57.6 63.9----
2024-05-29 11:24 pm S 4.1 6.0----29.92- 57.7 63.9----
2024-05-29 11:18 pmSSW 2.9 7.0----29.93- 57.7 64.0----
2024-05-29 11:12 pm S 5.1 6.0----29.93- 57.7 64.0----
2024-05-29 11:06 pm S 4.1 6.0----29.92- 57.7 64.0----
2024-05-29 11:00 pm S 5.1 7.0----29.92+0.00 57.7 64.0----
2024-05-29 10:54 pmSSW 5.1 8.0----29.92- 57.7 64.0----
2024-05-29 10:48 pm S 5.1 7.0----29.92- 57.7 64.0----
2024-05-29 10:42 pm S 5.1 7.0----29.92- 57.9 64.0----
2024-05-29 10:36 pm S 2.9 6.0----29.92- 58.5 64.0----
2024-05-29 10:30 pm S 2.9 6.0----29.92- 58.8 64.0----
2024-05-29 10:24 pm S 2.9 6.0----29.92- 59.0 64.0----
2024-05-29 10:18 pmSSW 2.9 6.0----29.92- 59.0 64.0----
2024-05-29 10:12 pm S 4.1 6.0----29.93- 59.0 64.0----
2024-05-29 10:06 pmSSW 5.1 7.0----29.92- 59.0 64.0----
2024-05-29 10:00 pmSSW 4.1 6.0----29.92+0.02 58.8 64.0----
2024-05-29 09:54 pm S 4.1 6.0----29.93- 59.0 64.0----
2024-05-29 09:48 pm S 2.9 6.0----29.92- 59.4 64.0----
2024-05-29 09:42 pm S 4.1 6.0----29.92- 59.4 64.0----
2024-05-29 09:36 pmSSW 4.1 7.0----29.92- 59.4 64.0----
2024-05-29 09:30 pmSSW 5.1 7.0----29.92- 59.7 64.0----
2024-05-29 09:24 pm SW 2.9 5.1----29.92- 59.9 64.0----
2024-05-29 09:18 pmSSW 2.9 5.1----29.92- 59.9 64.0----
2024-05-29 09:12 pmSSW 2.9 5.1----29.92- 59.9 64.0----
2024-05-29 09:06 pmSSW 2.9 5.1----29.92- 59.9 64.0----
2024-05-29 09:00 pmSSW 5.1 6.0----29.91+0.02 59.9 64.0----
2024-05-29 08:54 pmSSW 5.1 7.0----29.91- 59.9 63.9----
2024-05-29 08:48 pmSSW 5.1 6.0----29.91- 60.1 63.9----
2024-05-29 08:42 pmSSW 4.1 5.1----29.91- 60.3 63.9----
2024-05-29 08:36 pmSSW 4.1 7.0----29.91- 60.4 63.9----
2024-05-29 08:30 pmSSW 4.1 7.0----29.91- 60.4 63.9----
2024-05-29 08:24 pmSSW 4.1 7.0----29.91- 60.4 63.9----
2024-05-29 08:18 pmSSW 5.1 8.0----29.91- 60.6 64.0----
2024-05-29 08:12 pmSSW 6.0 8.9----29.91- 60.8 64.0----
2024-05-29 08:06 pmSSW 4.1 6.0----29.92- 61.2 64.0----
2024-05-29 08:00 pmSSW 4.1 8.0----29.91+0.02 61.5 64.0----
2024-05-29 07:54 pmSSW 5.1 8.0----29.91- 61.7 64.0----
2024-05-29 07:48 pm S 2.9 8.0----29.91-- 64.0----
2024-05-29 07:42 pmSSW 2.9 7.0----29.91-- 64.0----
2024-05-29 07:36 pmSSW 5.1 8.0----29.91-- 64.0----
2024-05-29 07:30 pm SW 4.1 8.0----29.91- 63.7 64.0----
2024-05-29 07:24 pm SW 6.0 8.9----29.91- 63.7 64.0----
2024-05-29 07:18 pm SW 4.1 7.0----29.91- 64.2 64.0----
2024-05-29 07:12 pm SW 4.1 8.0----29.91- 64.6 64.0----
2024-05-29 07:06 pm SW 6.0 9.9----29.90- 64.8 64.0----
2024-05-29 07:00 pm SW 5.1 8.0----29.90+0.00 65.3 64.0----
2024-05-29 06:54 pmWSW 5.1 9.9----29.90- 65.8 64.0----
2024-05-29 06:48 pm SW 5.1 7.0----29.90- 66.0 64.0----
2024-05-29 06:42 pmWSW 5.1 9.9----29.90- 66.2 64.0----
2024-05-29 06:36 pmWSW 6.0 8.0----29.90- 66.6 64.0----
2024-05-29 06:30 pm SW 6.0 8.9----29.90- 66.6 64.0----
2024-05-29 06:24 pmWSW 7.0 8.9----29.90- 66.6 64.0----
2024-05-29 06:18 pmWSW 5.1 11.1----29.90- 66.7 64.0----
2024-05-29 06:12 pm SW 7.0 11.1----29.90- 66.4 64.0----
2024-05-29 06:06 pmWSW 5.1 9.9----29.90- 67.3 64.0----
2024-05-29 06:00 pmWSW 7.0 11.1----29.90+0.00 66.6 63.9----
2024-05-29 05:54 pm SW 8.0 9.9----29.90- 66.7 63.9----
2024-05-29 05:48 pm SW 5.1 9.9----29.89- 67.1 63.9----
2024-05-29 05:42 pmWSW 6.0 11.1----29.90- 66.9 63.9----
2024-05-29 05:36 pmWSW 8.0 12.0----29.90- 66.6 63.9----
2024-05-29 05:30 pmWSW 7.0 12.0----29.89- 66.6 63.9----
2024-05-29 05:24 pmWSW 7.0 12.0----29.89- 66.9 63.9----
2024-05-29 05:18 pm W 7.0 11.1----29.89- 67.5 63.7----
2024-05-29 05:12 pm SW 8.0 14.0----29.89- 67.3 63.7----
2024-05-29 05:06 pmWSW 6.0 9.9----29.89- 68.2 63.7----
2024-05-29 05:00 pm SW 5.1 12.0----29.89-0.01 68.0 63.7----
2024-05-29 04:54 pm SW 8.0 11.1----29.89- 67.3 63.7----
2024-05-29 04:48 pm SW 7.0 13.0----29.89-- 63.7----
2024-05-29 04:42 pm SW 8.0 12.0----29.89-- 63.7----
2024-05-29 04:36 pm SW 8.0 13.0----29.89-- 63.5----
2024-05-29 04:30 pm SW 8.0 12.0----29.89- 66.7 63.5----
2024-05-29 04:24 pm SW 6.0 11.1----29.89- 67.3 63.5----
2024-05-29 04:18 pm SW 6.0 12.0----29.89- 67.5 63.5----
2024-05-29 04:12 pm SW 8.9 12.0----29.89- 67.1 63.5----
2024-05-29 04:06 pm SW 6.0 12.0----29.89- 67.5 63.3----
2024-05-29 04:00 pm SW 8.0 12.0----29.89-0.02 67.5 63.3----
2024-05-29 03:54 pmWSW 8.0 11.1----29.89- 67.1 63.3----
2024-05-29 03:48 pm SW 6.0 12.0----29.89- 67.3 63.3----
2024-05-29 03:42 pm SW 8.9 13.0----29.89- 67.1 63.3----
2024-05-29 03:36 pmSSW 8.0 12.0----29.89- 67.6 63.3----
2024-05-29 03:30 pm SW 8.9 12.0----29.89- 67.8 63.3----
2024-05-29 03:24 pmSSW 7.0 9.9----29.90- 68.5 63.3----
2024-05-29 03:18 pmSSW 5.1 9.9----29.90- 68.7 63.3----
2024-05-29 03:12 pmSSW 6.0 11.1----29.90- 68.0 63.3----
2024-05-29 03:06 pm SW 8.0 11.1----29.90- 67.8 63.3----
2024-05-29 03:00 pm SW 5.1 11.1----29.90- 68.7 63.1----
2024-05-29 02:54 pmSSW 8.0 12.0----29.90- 67.8 63.1----